Location: *
(1.3500°S, 147.5000°W)
Time: 17:14:06
(UTC+00:00)

IRIDIUM 106 - Pass Details

Date: 07 April 2020
Orbit: 776 x 779 km, 86.4° (Epoch: 28 May)

Event Time Altitude Azimuth Distance (km) Brightness Sun altitude
Rises 05:30:57 0° 2° (N) 3,242 7.6 -24.7°
Reaches altitude 10° 05:33:18 10° 2° (N) 2,317 6.8 -25.3°
Enters shadow 05:38:05 75° 27° (NNE) 803 4.2 -26.5°
